,,PA_Meas_PMT16A,,PR_Meas_QMR101_102,,RH_Meas_QMH101,,SR_Meas_QMS101,,TA_Meas_QMH101,,GenWind,,GenWind,
time,status,PA,status,PR,status,RH,status,SR,status,TA,status,DirAvg,status,SpdAvg,
2010-08-31, 00:00:05,VALID,917.966,VALID,0,VALID,97.29,VALID,0,VALID,19.3503,VALID,45,VALID,0.380078,
2010-08-31, 00:01:05,VALID,917.946,VALID,0,VALID,97.2977,VALID,0,VALID,19.3713,VALID,45,VALID,0.105469,
2010-08-31, 00:02:05,VALID,917.963,VALID,0,VALID,97.2824,VALID,0,VALID,19.3713,VALID,45,VALID,0,
2010-08-31, 00:03:05,VALID,917.938,VALID,0,VALID,97.3053,VALID,0,VALID,19.3698,VALID,45,VALID,0,
2010-08-31, 00:04:05,VALID,917.911,VALID,0,VALID,97.2977,VALID,0,VALID,19.3503,VALID,45,VALID,0.0613281,
2010-08-31, 00:05:05,VALID,917.906,VALID,0,VALID,97.3129,VALID,0,VALID,19.3308,VALID,45,VALID,0.110937,
2010-08-31, 00:06:05,VALID,917.875,VALID,0,VALID,97.3129,VALID,0,VALID,19.3113,VALID,45,VALID,0,
2010-08-31, 00:07:05,VALID,917.883,VALID,0,VALID,97.3053,VALID,0,VALID,19.3323,VALID,45,VALID,0,
2010-08-31, 00:08:05,VALID,917.851,VALID,0,VALID,97.3129,VALID,0,VALID,19.3113,VALID,45,VALID,0,
2010-08-31, 00:09:05,VALID,917.828,VALID,0,VALID,97.3205,VALID,0,VALID,19.3128,VALID,45,VALID,0,
2010-08-31, 00:10:05,VALID,917.818,VALID,0,VALID,97.3129,VALID,0,VALID,19.2723,VALID,45,VALID,0,
2010-08-31, 00:11:05,VALID,917.775,VALID,0,VALID,97.2977,VALID,0,VALID,19.2738,VALID,45,VALID,0.00429688,
2010-08-31, 00:12:05,VALID,917.78,VALID,0,VALID,97.2977,VALID,0,VALID,19.2334,VALID,45,VALID,0.368359,
2010-08-31, 00:13:05,VALID,917.797,VALID,0,VALID,97.3129,VALID,0,VALID,19.2334,VALID,45,VALID,0.358984,
2010-08-31, 00:14:05,VALID,917.783,VALID,0,VALID,97.3053,VALID,0,VALID,19.2153,VALID,45,VALID,0.511719,
2010-08-31, 00:15:05,VALID,917.792,VALID,0,VALID,97.3281,VALID,0,VALID,19.1554,VALID,45,VALID,0.757031,
2010-08-31, 00:16:05,VALID,917.778,VALID,0,VALID,97.3205,VALID,0,VALID,19.1763,VALID,45,VALID,0.790625,
2010-08-31, 00:17:05,VALID,917.807,VALID,0,VALID,97.3205,VALID,0,VALID,19.1763,VALID,45,VALID,0.829687,
2010-08-31, 00:18:05,VALID,917.79,VALID,0,VALID,97.3281,VALID,0,VALID,19.1958,VALID,45,VALID,0.828906,
2010-08-31, 00:19:05,VALID,917.771,VALID,0,VALID,97.3205,VALID,0,VALID,19.2348,VALID,45,VALID,0.704297,
2010-08-31, 00:20:05,VALID,917.789,VALID,0,VALID,97.3358,VALID,0,VALID,19.2348,VALID,45,VALID,0.613672,
2010-08-31, 00:21:05,VALID,917.792,VALID,0,VALID,97.3434,VALID,0,VALID,19.2348,VALID,45,VALID,0.303125,
2010-08-31, 00:22:05,VALID,917.806,VALID,0,VALID,97.3358,VALID,0,VALID,19.2348,VALID,45,VALID,0.391016,
2010-08-31, 00:23:05,VALID,917.82,VALID,0,VALID,97.3281,VALID,0,VALID,19.2348,VALID,45,VALID,0.590625,
2010-08-31, 00:24:05,VALID,917.804,VALID,0,VALID,97.3434,VALID,0,VALID,19.2153,VALID,45,VALID,0.891797,
2010-08-31, 00:25:05,VALID,917.819,VALID,0,VALID,97.3205,VALID,0,VALID,19.2153,VALID,141,VALID,0.782422,
2010-08-31, 00:26:05,VALID,917.834,VALID,0,VALID,97.3358,VALID,0,VALID,19.1958,VALID,141,VALID,0.627734,
2010-08-31, 00:27:05,VALID,917.864,VALID,0,VALID,97.3434,VALID,0,VALID,19.1944,VALID,141,VALID,0.741016,
2010-08-31, 00:28:05,VALID,917.893,VALID,0,VALID,97.3358,VALID,0,VALID,19.1958,VALID,142,VALID,0.620703,
2010-08-31, 00:29:05,VALID,917.918,VALID,0,VALID,97.3434,VALID,0,VALID,19.1958,VALID,141,VALID,0.444922,
2010-08-31, 00:30:05,VALID,917.932,VALID,0,VALID,97.351,VALID,0,VALID,19.2153,VALID,141,VALID,0.119531,
2010-08-31, 00:31:05,VALID,917.925,VALID,0,VALID,97.3434,VALID,0,VALID,19.2153,VALID,141,VALID,0,
2010-08-31, 00:32:05,VALID,917.898,VALID,0,VALID,97.3663,VALID,0,VALID,19.2139,VALID,141,VALID,0,
2010-08-31, 00:33:05,VALID,917.902,VALID,0,VALID,97.351,VALID,0,VALID,19.2348,VALID,141,VALID,0.283984,
2010-08-31, 00:34:05,VALID,917.863,VALID,0,VALID,97.3586,VALID,0,VALID,19.1944,VALID,141,VALID,0.479297,
2010-08-31, 00:35:05,VALID,917.854,VALID,0,VALID,97.351,VALID,0,VALID,19.1749,VALID,141,VALID,0.500391,
2010-08-31, 00:36:05,VALID,917.854,VALID,0,VALID,97.3586,VALID,0,VALID,19.1958,VALID,141,VALID,0.113281,
2010-08-31, 00:37:05,VALID,917.832,VALID,0,VALID,97.351,VALID,0,VALID,19.1944,VALID,141,VALID,0.165625,
2010-08-31, 00:38:05,VALID,917.833,VALID,0,VALID,97.3663,VALID,0,VALID,19.2348,VALID,141,VALID,0,
2010-08-31, 00:39:05,VALID,917.826,VALID,0,VALID,97.3586,VALID,0,VALID,19.2334,VALID,141,VALID,0.143359,
2010-08-31, 00:40:05,VALID,917.785,VALID,0,VALID,97.3586,VALID,0,VALID,19.2543,VALID,141,VALID,0,
2010-08-31, 00:41:05,VALID,917.797,VALID,0,VALID,97.3663,VALID,0,VALID,19.2528,VALID,141,VALID,0.676562,
2010-08-31, 00:42:05,VALID,917.766,VALID,0,VALID,97.3586,VALID,0,VALID,19.2543,VALID,141,VALID,0.761719,
2010-08-31, 00:43:05,VALID,917.727,VALID,0,VALID,97.3586,VALID,0,VALID,19.2153,VALID,141,VALID,0.542188,
2010-08-31, 00:44:05,VALID,917.705,VALID,0,VALID,97.3358,VALID,0,VALID,19.1568,VALID,141,VALID,0.414453,
2010-08-31, 00:45:05,VALID,917.679,VALID,0,VALID,97.351,VALID,0,VALID,19.1373,VALID,141,VALID,0.315625,
2010-08-31, 00:46:05,VALID,917.657,VALID,0,VALID,97.351,VALID,0,VALID,19.1373,VALID,141,VALID,0.215234,
2010-08-31, 00:47:05,VALID,917.598,VALID,0,VALID,97.351,VALID,0,VALID,19.1373,VALID,141,VALID,0.228516,
2010-08-31, 00:48:05,VALID,917.618,VALID,0,VALID,97.3586,VALID,0,VALID,19.1554,VALID,141,VALID,0.433594,
2010-08-31, 00:49:05,VALID,917.587,VALID,0,VALID,97.3739,VALID,0,VALID,19.1568,VALID,141,VALID,0.309766,
2010-08-31, 00:50:05,VALID,917.561,VALID,0,VALID,97.3739,VALID,0,VALID,19.1763,VALID,141,VALID,0.341016,
2010-08-31, 00:51:05,VALID,917.566,VALID,0,VALID,97.3815,VALID,0,VALID,19.1568,VALID,141,VALID,0.418359,
2010-08-31, 00:52:05,VALID,917.499,VALID,0,VALID,97.3739,VALID,0,VALID,19.1554,VALID,141,VALID,0.55,
2010-08-31, 00:53:05,VALID,917.477,VALID,0,VALID,97.3891,VALID,0,VALID,19.1958,VALID,141,VALID,0.567187,
2010-08-31, 00:54:05,VALID,917.456,VALID,0,VALID,97.3739,VALID,0,VALID,19.1554,VALID,141,VALID,0.609375,
2010-08-31, 00:55:05,VALID,917.422,VALID,0,VALID,97.3815,VALID,0,VALID,19.1749,VALID,141,VALID,0.850391,
2010-08-31, 00:56:05,VALID,917.396,VALID,0,VALID,97.3815,VALID,0,VALID,19.1763,VALID,141,VALID,0.850391,
2010-08-31, 00:57:05,VALID,917.345,VALID,0,VALID,97.3586,VALID,0,VALID,19.1749,VALID,141,VALID,0.803516,
2010-08-31, 00:58:05,VALID,917.33,VALID,0,VALID,97.3815,VALID,0,VALID,19.1958,VALID,141,VALID,0.636719,
2010-08-31, 00:59:05,VALID,917.307,VALID,0,VALID,97.3739,VALID,0,VALID,19.1958,VALID,141,VALID,0.665234,
2010-08-31, 01:00:05,VALID,917.297,VALID,0,VALID,97.3663,VALID,0,VALID,19.1958,VALID,141,VALID,0.708203,
2010-08-31, 01:01:05,VALID,917.321,VALID,0,VALID,97.3663,VALID,0,VALID,19.1749,VALID,141,VALID,0.603516,
2010-08-31, 01:02:05,VALID,917.314,VALID,0,VALID,97.3815,VALID,0,VALID,19.1554,VALID,142,VALID,0.569922,
2010-08-31, 01:03:05,VALID,917.285,VALID,0,VALID,97.3968,VALID,0,VALID,19.1568,VALID,141,VALID,0.589844,
2010-08-31, 01:04:05,VALID,917.288,VALID,0,VALID,97.3739,VALID,0,VALID,19.1359,VALID,141,VALID,0.492578,
2010-08-31, 01:05:05,VALID,917.239,VALID,0,VALID,97.3815,VALID,0,VALID,19.1568,VALID,141,VALID,0.49375,
2010-08-31, 01:06:05,VALID,917.23,VALID,0,VALID,97.3891,VALID,0,VALID,19.1568,VALID,141,VALID,0.521875,
2010-08-31, 01:07:05,VALID,917.22,VALID,0,VALID,97.3663,VALID,0,VALID,19.1359,VALID,141,VALID,0.375391,
2010-08-31, 01:08:05,VALID,917.203,VALID,0,VALID,97.3968,VALID,0,VALID,19.1373,VALID,141,VALID,0.672656,
2010-08-31, 01:09:05,VALID,917.197,VALID,0,VALID,97.3891,VALID,0,VALID,19.1373,VALID,141,VALID,0.473047,
2010-08-31, 01:10:05,VALID,917.177,VALID,0,VALID,97.3739,VALID,0,VALID,19.1193,VALID,141,VALID,0.448828,
2010-08-31, 01:11:05,VALID,917.172,VALID,0,VALID,97.3586,VALID,0.107441,VALID,19.0969,VALID,141,VALID,0,
2010-08-31, 01:12:05,VALID,917.17,VALID,0,VALID,97.3815,VALID,0.107441,VALID,19.1164,VALID,141,VALID,0.348828,
2010-08-31, 01:13:05,VALID,917.144,VALID,0,VALID,97.3739,VALID,0,VALID,19.1164,VALID,141,VALID,0.670703,
2010-08-31, 01:14:05,VALID,917.144,VALID,0,VALID,97.3739,VALID,0.107441,VALID,19.1164,VALID,141,VALID,0.671484,
2010-08-31, 01:15:05,VALID,917.116,VALID,0,VALID,97.3663,VALID,0.107441,VALID,19.0969,VALID,141,VALID,0.677734,
2010-08-31, 01:16:05,VALID,917.038,VALID,0,VALID,97.3739,VALID,0.107441,VALID,19.0579,VALID,141,VALID,0.550391,
2010-08-31, 01:17:05,VALID,917.053,VALID,0,VALID,97.3891,VALID,0.107441,VALID,19.0384,VALID,141,VALID,0.570703,
2010-08-31, 01:18:05,VALID,917.042,VALID,0,VALID,97.3891,VALID,0.107441,VALID,19.0189,VALID,141,VALID,0.337109,
2010-08-31, 01:19:05,VALID,917,VALID,0,VALID,97.3891,VALID,0.107441,VALID,19.0189,VALID,141,VALID,0.646484,
2010-08-31, 01:20:05,VALID,917.012,VALID,0,VALID,97.3663,VALID,0,VALID,19.0189,VALID,141,VALID,0.576563,
2010-08-31, 01:21:05,VALID,917.032,VALID,0,VALID,97.3815,VALID,0.107441,VALID,18.9799,VALID,141,VALID,0.4,
2010-08-31, 01:22:05,VALID,917.057,VALID,0,VALID,97.3891,VALID,0,VALID,18.9994,VALID,141,VALID,0.523047,
2010-08-31, 01:23:05,VALID,917.054,VALID,0,VALID,97.4044,VALID,0.107441,VALID,18.9799,VALID,141,VALID,0.695313,
2010-08-31, 01:24:05,VALID,917.094,VALID,0,VALID,97.4044,VALID,0,VALID,18.998,VALID,141,VALID,1.10703,
2010-08-31, 01:25:04,VALID,917.095,VALID,0,VALID,97.3891,VALID,0,VALID,19.0384,VALID,141,VALID,0.910937,
2010-08-31, 01:26:04,VALID,917.055,VALID,0,VALID,97.3891,VALID,0,VALID,19.0203,VALID,142,VALID,0.857422,
2010-08-31, 01:27:04,VALID,917.084,VALID,0,VALID,97.4044,VALID,0,VALID,19.0189,VALID,141,VALID,0.582422,
2010-08-31, 01:28:04,VALID,917.092,VALID,0,VALID,97.412,VALID,0,VALID,19.0189,VALID,141,VALID,0.712109,
2010-08-31, 01:29:04,VALID,917.063,VALID,0,VALID,97.3968,VALID,0,VALID,19.0593,VALID,141,VALID,0.804688,
2010-08-31, 01:30:04,VALID,917.035,VALID,0,VALID,97.3891,VALID,0,VALID,19.0593,VALID,142,VALID,1.01172,
2010-08-31, 01:31:04,VALID,917.04,VALID,0,VALID,97.3968,VALID,0,VALID,19.0398,VALID,142,VALID,1.16602,
2010-08-31, 01:32:04,VALID,917.007,VALID,0,VALID,97.3739,VALID,0,VALID,19.0203,VALID,141,VALID,0.997656,
2010-08-31, 01:33:04,VALID,917.016,VALID,0,VALID,97.3968,VALID,0,VALID,19.0398,VALID,179,VALID,0.68125,
2010-08-31, 01:34:04,VALID,917.019,VALID,0,VALID,97.3739,VALID,0,VALID,19.0398,VALID,179,VALID,0.429688,
2010-08-31, 01:35:04,VALID,916.981,VALID,0,VALID,97.3739,VALID,0,VALID,19.0398,VALID,179,VALID,0.618359,
2010-08-31, 01:36:04,VALID,917.003,VALID,0,VALID,97.3891,VALID,0,VALID,19.0398,VALID,179,VALID,0.396484,
2010-08-31, 01:37:04,VALID,917,VALID,0,VALID,97.3891,VALID,0,VALID,19.0189,VALID,179,VALID,0.302734,
2010-08-31, 01:38:04,VALID,917.022,VALID,0,VALID,97.3968,VALID,0,VALID,19.0189,VALID,179,VALID,0.309766,
2010-08-31, 01:39:04,VALID,917.035,VALID,0,VALID,97.3968,VALID,0,VALID,19.0398,VALID,179,VALID,0.451953,
2010-08-31, 01:40:04,VALID,917.044,VALID,0,VALID,97.4044,VALID,0,VALID,19.0203,VALID,179,VALID,0,
2010-08-31, 01:41:04,VALID,917.054,VALID,0,VALID,97.3815,VALID,0,VALID,19.0008,VALID,179,VALID,0.319531,
2010-08-31, 01:42:04,VALID,917.072,VALID,0,VALID,97.3815,VALID,0,VALID,19.0008,VALID,179,VALID,0.25625,
2010-08-31, 01:43:04,VALID,917.04,VALID,0,VALID,97.3891,VALID,0,VALID,19.0008,VALID,179,VALID,0.589844,
2010-08-31, 01:44:04,VALID,917.049,VALID,0,VALID,97.3968,VALID,0,VALID,18.9619,VALID,179,VALID,0.846875,
2010-08-31, 01:45:04,VALID,917.033,VALID,0,VALID,97.3968,VALID,0,VALID,18.9814,VALID,179,VALID,1.08672,
2010-08-31, 01:46:04,VALID,917.029,VALID,0,VALID,97.3968,VALID,0,VALID,18.9619,VALID,179,VALID,1.06641,
2010-08-31, 01:47:04,VALID,917.038,VALID,0,VALID,97.4044,VALID,0,VALID,18.9424,VALID,172,VALID,1.01367,
2010-08-31, 01:48:04,VALID,917.025,VALID,0,VALID,97.3891,VALID,0,VALID,18.9214,VALID,84,VALID,1.25742,
2010-08-31, 01:49:04,VALID,917.032,VALID,0,VALID,97.4044,VALID,0,VALID,18.9214,VALID,87,VALID,0.821484,
2010-08-31, 01:50:04,VALID,917.04,VALID,0,VALID,97.3891,VALID,0,VALID,18.9424,VALID,112,VALID,0.880859,
2010-08-31, 01:51:04,VALID,917.029,VALID,0,VALID,97.3891,VALID,0,VALID,18.9424,VALID,112,VALID,0.807031,
2010-08-31, 01:52:04,VALID,917.054,VALID,0,VALID,97.3968,VALID,0,VALID,18.9424,VALID,112,VALID,0.890625,
2010-08-31, 01:53:04,VALID,917.025,VALID,0,VALID,97.3968,VALID,0,VALID,18.9424,VALID,112,VALID,0.73125,
2010-08-31, 01:54:04,VALID,917.011,VALID,0,VALID,97.3891,VALID,0,VALID,18.9619,VALID,112,VALID,1.11836,
2010-08-31, 01:55:04,VALID,917.056,VALID,0,VALID,97.412,VALID,0,VALID,18.9424,VALID,112,VALID,1.12227,
2010-08-31, 01:56:04,VALID,917.021,VALID,0,VALID,97.4044,VALID,0,VALID,18.9619,VALID,112,VALID,0.993359,
2010-08-31, 01:57:04,VALID,917.055,VALID,0,VALID,97.4273,VALID,0,VALID,18.9619,VALID,112,VALID,0.888281,
2010-08-31, 01:58:04,VALID,917.061,VALID,0,VALID,97.412,VALID,0,VALID,18.9214,VALID,112,VALID,0.519922,
2010-08-31, 01:59:04,VALID,917.054,VALID,0,VALID,97.4044,VALID,0,VALID,18.9424,VALID,112,VALID,0.460156,
2010-08-31, 02:00:04,VALID,917.035,VALID,0,VALID,97.4044,VALID,0,VALID,18.9424,VALID,112,VALID,0.802344,
2010-08-31, 02:01:04,VALID,917.035,VALID,0,VALID,97.3968,VALID,0,VALID,18.9229,VALID,112,VALID,0.618359,
2010-08-31, 02:02:04,VALID,917.026,VALID,0,VALID,97.412,VALID,0,VALID,18.9229,VALID,112,VALID,0.742188,
2010-08-31, 02:03:04,VALID,916.982,VALID,0,VALID,97.412,VALID,0,VALID,18.9229,VALID,112,VALID,0.630469,
2010-08-31, 02:04:04,VALID,916.98,VALID,0,VALID,97.4196,VALID,0,VALID,18.9229,VALID,112,VALID,0.663281,
2010-08-31, 02:05:04,VALID,916.982,VALID,0,VALID,97.4425,VALID,0,VALID,18.9034,VALID,112,VALID,0.541016,
2010-08-31, 02:06:04,VALID,916.986,VALID,0,VALID,97.3968,VALID,0,VALID,18.9019,VALID,112,VALID,0.741797,
2010-08-31, 02:07:04,VALID,917.003,VALID,0,VALID,97.412,VALID,0,VALID,18.9229,VALID,112,VALID,0.543359,
2010-08-31, 02:08:04,VALID,917.043,VALID,0,VALID,97.4273,VALID,0,VALID,18.9424,VALID,112,VALID,0.551172,
2010-08-31, 02:09:04,VALID,917.051,VALID,0,VALID,97.4273,VALID,0,VALID,18.9424,VALID,112,VALID,0.651953,
2010-08-31, 02:10:04,VALID,917.055,VALID,0,VALID,97.4196,VALID,0,VALID,18.9619,VALID,112,VALID,0.719531,
2010-08-31, 02:11:04,VALID,917.043,VALID,0,VALID,97.4425,VALID,0,VALID,18.9799,VALID,112,VALID,0.84375,
2010-08-31, 02:12:04,VALID,917.059,VALID,0,VALID,97.4349,VALID,0,VALID,18.9785,VALID,112,VALID,0.470313,
2010-08-31, 02:13:04,VALID,917.047,VALID,0,VALID,97.4349,VALID,0.107441,VALID,18.9785,VALID,112,VALID,0.686719,
2010-08-31, 02:14:04,VALID,917.05,VALID,0,VALID,97.4196,VALID,0,VALID,18.9994,VALID,112,VALID,0.522266,
2010-08-31, 02:15:04,VALID,917.032,VALID,0,VALID,97.4425,VALID,0.107441,VALID,18.998,VALID,112,VALID,0.5125,
2010-08-31, 02:16:04,VALID,917.013,VALID,0,VALID,97.4273,VALID,0.107441,VALID,19.0384,VALID,112,VALID,0.630859,
2010-08-31, 02:17:04,VALID,916.977,VALID,0,VALID,97.4273,VALID,0.107441,VALID,19.0384,VALID,112,VALID,0.738281,
2010-08-31, 02:18:04,VALID,916.97,VALID,0,VALID,97.4425,VALID,0.107441,VALID,19.0579,VALID,112,VALID,0.524609,
2010-08-31, 02:19:04,VALID,916.945,VALID,0,VALID,97.4349,VALID,0.107441,VALID,19.0969,VALID,112,VALID,0.487109,
2010-08-31, 02:20:04,VALID,916.935,VALID,0,VALID,97.4273,VALID,0.107441,VALID,19.0759,VALID,112,VALID,0.235156,
2010-08-31, 02:21:04,VALID,916.905,VALID,0,VALID,97.4349,VALID,0.107441,VALID,19.0954,VALID,112,VALID,0.247266,
2010-08-31, 02:22:04,VALID,916.917,VALID,0,VALID,97.4349,VALID,0.107441,VALID,19.1359,VALID,112,VALID,0.157422,
2010-08-31, 02:23:04,VALID,916.889,VALID,0,VALID,97.4273,VALID,0,VALID,19.1554,VALID,112,VALID,0.494141,
2010-08-31, 02:24:04,VALID,916.846,VALID,0,VALID,97.4425,VALID,0.107441,VALID,19.1539,VALID,112,VALID,0.680469,
2010-08-31, 02:25:04,VALID,916.868,VALID,0,VALID,97.4196,VALID,0,VALID,19.1554,VALID,112,VALID,0.617969,
2010-08-31, 02:26:04,VALID,916.829,VALID,0,VALID,97.4501,VALID,0,VALID,19.1178,VALID,112,VALID,0.727344,
2010-08-31, 02:27:04,VALID,916.82,VALID,0,VALID,97.4273,VALID,0,VALID,19.1178,VALID,112,VALID,0.825391,
2010-08-31, 02:28:04,VALID,916.833,VALID,0,VALID,97.4273,VALID,0,VALID,19.1178,VALID,112,VALID,1.11602,
2010-08-31, 02:29:04,VALID,916.853,VALID,0,VALID,97.4196,VALID,0,VALID,19.0983,VALID,112,VALID,1.03242,
2010-08-31, 02:30:04,VALID,916.839,VALID,0,VALID,97.4196,VALID,0,VALID,19.0788,VALID,112,VALID,1.07969,
2010-08-31, 02:31:04,VALID,916.88,VALID,0,VALID,97.4196,VALID,0,VALID,19.0983,VALID,112,VALID,0.843359,
2010-08-31, 02:32:04,VALID,916.893,VALID,0,VALID,97.4349,VALID,0,VALID,19.1373,VALID,112,VALID,0.703516,
2010-08-31, 02:33:04,VALID,916.925,VALID,0,VALID,97.4273,VALID,0,VALID,19.1763,VALID,112,VALID,0.455469,
2010-08-31, 02:34:04,VALID,916.935,VALID,0,VALID,97.4196,VALID,0,VALID,19.1944,VALID,112,VALID,0.512109,
2010-08-31, 02:35:04,VALID,916.935,VALID,0,VALID,97.4273,VALID,0,VALID,19.2348,VALID,112,VALID,0.33125,
2010-08-31, 02:36:04,VALID,916.912,VALID,0,VALID,97.4044,VALID,0,VALID,19.2348,VALID,112,VALID,0.313672,
2010-08-31, 02:37:04,VALID,916.956,VALID,0,VALID,97.4044,VALID,0,VALID,19.2543,VALID,112,VALID,0.376172,
2010-08-31, 02:38:04,VALID,916.939,VALID,0,VALID,97.3891,VALID,0,VALID,19.2738,VALID,112,VALID,0.442187,
2010-08-31, 02:39:04,VALID,916.959,VALID,0,VALID,97.3968,VALID,0,VALID,19.2543,VALID,112,VALID,0.0382813,
2010-08-31, 02:40:04,VALID,916.956,VALID,0,VALID,97.3815,VALID,0,VALID,19.2139,VALID,112,VALID,0,
2010-08-31, 02:41:04,VALID,916.932,VALID,0,VALID,97.3891,VALID,0,VALID,19.2153,VALID,112,VALID,0,
2010-08-31, 02:42:04,VALID,916.898,VALID,0,VALID,97.3815,VALID,0,VALID,19.2153,VALID,112,VALID,0,
2010-08-31, 02:43:04,VALID,916.935,VALID,0,VALID,97.3815,VALID,0,VALID,19.2153,VALID,112,VALID,0,
2010-08-31, 02:44:04,VALID,916.913,VALID,0,VALID,97.3815,VALID,0,VALID,19.2153,VALID,112,VALID,0,
2010-08-31, 02:45:04,VALID,916.914,VALID,0,VALID,97.3739,VALID,0,VALID,19.2139,VALID,112,VALID,0,
2010-08-31, 02:46:04,VALID,916.939,VALID,0,VALID,97.3663,VALID,0,VALID,19.2348,VALID,112,VALID,0,
2010-08-31, 02:47:04,VALID,916.909,VALID,0,VALID,97.3586,VALID,0,VALID,19.2153,VALID,112,VALID,0,
2010-08-31, 02:48:04,VALID,916.879,VALID,0,VALID,97.3586,VALID,0,VALID,19.2348,VALID,112,VALID,0,
2010-08-31, 02:49:04,VALID,916.896,VALID,0,VALID,97.351,VALID,0,VALID,19.2153,VALID,113,VALID,0,
2010-08-31, 02:50:04,VALID,916.912,VALID,0,VALID,97.351,VALID,0,VALID,19.2153,VALID,112,VALID,0,
2010-08-31, 02:51:04,VALID,916.879,VALID,0,VALID,97.3586,VALID,0,VALID,19.2153,VALID,112,VALID,0,
2010-08-31, 02:52:04,VALID,916.826,VALID,0,VALID,97.3739,VALID,0,VALID,19.2348,VALID,112,VALID,0,
2010-08-31, 02:53:04,VALID,916.84,VALID,0,VALID,97.351,VALID,0,VALID,19.2139,VALID,112,VALID,0,
2010-08-31, 02:54:04,VALID,916.83,VALID,0,VALID,97.351,VALID,0,VALID,19.2139,VALID,112,VALID,0,
2010-08-31, 02:55:04,VALID,916.828,VALID,0,VALID,97.3739,VALID,0,VALID,19.2543,VALID,112,VALID,0.0046875,
2010-08-31, 02:56:04,VALID,916.799,VALID,0,VALID,97.3663,VALID,0,VALID,19.2153,VALID,112,VALID,0.316016,
2010-08-31, 02:57:04,VALID,916.777,VALID,0,VALID,97.3663,VALID,0,VALID,19.1944,VALID,112,VALID,0.434766,
2010-08-31, 02:58:04,VALID,916.777,VALID,0,VALID,97.3663,VALID,0,VALID,19.2153,VALID,112,VALID,0.584766,
2010-08-31, 02:59:04,VALID,916.771,VALID,0,VALID,97.3663,VALID,0.107441,VALID,19.2153,VALID,112,VALID,0.503125,
2010-08-31, 03:00:04,VALID,916.757,VALID,0,VALID,97.3663,VALID,0,VALID,19.1944,VALID,112,VALID,0.214844,
2010-08-31, 03:01:04,VALID,916.733,VALID,0,VALID,97.3586,VALID,0,VALID,19.1958,VALID,112,VALID,0.2,
2010-08-31, 03:02:04,VALID,916.735,VALID,0,VALID,97.3586,VALID,0,VALID,19.1749,VALID,112,VALID,0.456641,
2010-08-31, 03:03:04,VALID,916.741,VALID,0,VALID,97.3586,VALID,0,VALID,19.1568,VALID,113,VALID,0.453906,
2010-08-31, 03:04:04,VALID,916.718,VALID,0,VALID,97.3434,VALID,0,VALID,19.0969,VALID,112,VALID,0.526953,
2010-08-31, 03:05:04,VALID,916.734,VALID,0,VALID,97.3358,VALID,0,VALID,19.0983,VALID,112,VALID,0.471484,
2010-08-31, 03:06:04,VALID,916.722,VALID,0,VALID,97.3434,VALID,0,VALID,19.0788,VALID,112,VALID,0.709766,
2010-08-31, 03:07:04,VALID,916.732,VALID,0,VALID,97.351,VALID,0,VALID,19.0788,VALID,112,VALID,0.676562,
2010-08-31, 03:08:04,VALID,916.671,VALID,0,VALID,97.3586,VALID,0,VALID,19.0774,VALID,112,VALID,0.680469,
2010-08-31, 03:09:04,VALID,916.676,VALID,0,VALID,97.3358,VALID,0,VALID,19.0788,VALID,112,VALID,0.543359,
2010-08-31, 03:10:04,VALID,916.669,VALID,0,VALID,97.3586,VALID,0,VALID,19.0579,VALID,113,VALID,0.826953,
2010-08-31, 03:11:04,VALID,916.652,VALID,0,VALID,97.351,VALID,0,VALID,19.0983,VALID,112,VALID,0.716797,
2010-08-31, 03:12:04,VALID,916.635,VALID,0,VALID,97.3358,VALID,0,VALID,19.0384,VALID,112,VALID,0.921094,
2010-08-31, 03:13:04,VALID,916.646,VALID,0.2,VALID,97.3358,VALID,0,VALID,19.0008,VALID,112,VALID,0.964844,
2010-08-31, 03:14:04,VALID,916.63,VALID,0,VALID,97.351,VALID,0,VALID,19.0008,VALID,112,VALID,0.879687,
2010-08-31, 03:15:04,VALID,916.626,VALID,0,VALID,97.3586,VALID,0,VALID,19.0203,VALID,112,VALID,0.91875,
2010-08-31, 03:16:04,VALID,916.628,VALID,0,VALID,97.3434,VALID,0,VALID,18.9994,VALID,112,VALID,0.909766,
2010-08-31, 03:17:04,VALID,916.627,VALID,0,VALID,97.351,VALID,0,VALID,19.0203,VALID,112,VALID,0.798047,
2010-08-31, 03:18:04,VALID,916.633,VALID,0,VALID,97.3663,VALID,0,VALID,19.0203,VALID,112,VALID,0.580078,
2010-08-31, 03:19:04,VALID,916.607,VALID,0,VALID,97.351,VALID,0,VALID,19.0203,VALID,112,VALID,0.511328,
2010-08-31, 03:20:04,VALID,916.628,VALID,0,VALID,97.3586,VALID,0,VALID,19.0203,VALID,112,VALID,0.521875,
2010-08-31, 03:21:04,VALID,916.645,VALID,0,VALID,97.3663,VALID,0,VALID,19.0008,VALID,112,VALID,0.683984,
2010-08-31, 03:22:04,VALID,916.653,VALID,0,VALID,97.3586,VALID,0,VALID,18.9619,VALID,112,VALID,0.464063,
2010-08-31, 03:23:04,VALID,916.657,VALID,0,VALID,97.3586,VALID,0,VALID,18.9424,VALID,112,VALID,0.505469,
2010-08-31, 03:24:04,VALID,916.684,VALID,0,VALID,97.3586,VALID,0,VALID,18.9424,VALID,112,VALID,0.310156,
2010-08-31, 03:25:04,VALID,916.695,VALID,0,VALID,97.3663,VALID,0,VALID,18.9424,VALID,112,VALID,0.518359,
2010-08-31, 03:26:04,VALID,916.698,VALID,0,VALID,97.3663,VALID,0,VALID,18.9229,VALID,112,VALID,0.516797,
2010-08-31, 03:27:04,VALID,916.675,VALID,0,VALID,97.3739,VALID,0,VALID,18.9229,VALID,112,VALID,0.25625,
2010-08-31, 03:28:04,VALID,916.645,VALID,0,VALID,97.3663,VALID,0,VALID,18.9424,VALID,112,VALID,0.720703,
2010-08-31, 03:29:04,VALID,916.645,VALID,0,VALID,97.3586,VALID,0,VALID,18.9619,VALID,112,VALID,0.519141,
2010-08-31, 03:30:04,VALID,916.63,VALID,0,VALID,97.3891,VALID,0,VALID,18.9619,VALID,112,VALID,0.559375,
2010-08-31, 03:31:04,VALID,916.644,VALID,0,VALID,97.3891,VALID,0,VALID,18.9619,VALID,112,VALID,0.507422,
2010-08-31, 03:32:04,VALID,916.626,VALID,0,VALID,97.3815,VALID,0,VALID,18.9424,VALID,112,VALID,0.273438,
2010-08-31, 03:33:04,VALID,916.601,VALID,0,VALID,97.4044,VALID,0,VALID,18.9424,VALID,113,VALID,0.432031,
2010-08-31, 03:34:04,VALID,916.607,VALID,0,VALID,97.4196,VALID,0,VALID,18.9409,VALID,112,VALID,0.460938,
2010-08-31, 03:35:04,VALID,916.569,VALID,0,VALID,97.4196,VALID,0,VALID,18.9814,VALID,112,VALID,0.678906,
2010-08-31, 03:36:04,VALID,916.55,VALID,0,VALID,97.3968,VALID,0,VALID,19.0008,VALID,112,VALID,0.794141,
2010-08-31, 03:37:04,VALID,916.575,VALID,0,VALID,97.3968,VALID,0,VALID,19.0008,VALID,113,VALID,0.761328,
2010-08-31, 03:38:04,VALID,916.545,VALID,0,VALID,97.3891,VALID,0,VALID,19.0008,VALID,112,VALID,0.755078,
2010-08-31, 03:39:04,VALID,916.513,VALID,0,VALID,97.4044,VALID,0,VALID,19.0008,VALID,113,VALID,0.800781,
2010-08-31, 03:40:04,VALID,916.519,VALID,0,VALID,97.3968,VALID,0,VALID,19.0008,VALID,113,VALID,0.723437,
2010-08-31, 03:41:04,VALID,916.504,VALID,0,VALID,97.4044,VALID,0,VALID,19.0008,VALID,112,VALID,0.902344,
2010-08-31, 03:42:04,VALID,916.51,VALID,0,VALID,97.3891,VALID,0,VALID,19.0008,VALID,112,VALID,0.501953,
2010-08-31, 03:43:04,VALID,916.475,VALID,0,VALID,97.412,VALID,0,VALID,19.0008,VALID,112,VALID,0.724219,
2010-08-31, 03:44:04,VALID,916.49,VALID,0,VALID,97.412,VALID,0,VALID,19.0008,VALID,112,VALID,0.371094,
2010-08-31, 03:45:04,VALID,916.48,VALID,0,VALID,97.4044,VALID,0,VALID,18.9799,VALID,112,VALID,0.455859,